Time,TemperatureF,DewpointF,PressureIn,WindDirection,WindDirectionDegrees,WindSpeedMPH,WindSpeedGustMPH,Humidity,HourlyPrecipIn,Conditions,Clouds,dailyrainin,SoftwareType,DateUTC
2013-02-02 00:03:00,14.0,7.0,30.32,SW,216,2.0,-999.0,73,-99.99,,,-99.99,,2013-02-02 05:03:00,
2013-02-02 00:12:00,14.0,7.0,30.32,SW,216,2.0,-999.0,73,-99.99,,,-99.99,,2013-02-02 05:12:00,
2013-02-02 00:22:00,14.0,7.0,30.32,West,277,2.0,-999.0,73,-99.99,,,-99.99,,2013-02-02 05:22:00,
2013-02-02 00:33:00,14.0,7.0,30.32,West,263,1.0,-999.0,73,-99.99,,,-99.99,,2013-02-02 05:33:00,
2013-02-02 00:41:00,14.0,7.0,30.32,West,263,1.0,-999.0,73,-99.99,,,-99.99,,2013-02-02 05:41:00,
2013-02-02 00:52:00,14.0,7.0,30.31,SW,219,2.0,-999.0,73,-99.99,,,-99.99,,2013-02-02 05:52:00,
2013-02-02 01:02:00,14.0,7.0,30.31,West,279,1.0,-999.0,73,-99.99,,,-99.99,,2013-02-02 06:02:00,
2013-02-02 01:12:00,14.0,7.0,30.31,West,279,1.0,-999.0,73,-99.99,,,-99.99,,2013-02-02 06:12:00,
2013-02-02 01:22:00,14.0,7.0,30.31,West,273,1.0,-999.0,74,-99.99,,,-99.99,,2013-02-02 06:22:00,
2013-02-02 01:32:00,14.0,7.0,30.30,SW,234,1.0,-999.0,73,-99.99,,,-99.99,,2013-02-02 06:32:00,
2013-02-02 01:42:00,14.0,7.0,30.30,SW,234,1.0,-999.0,73,-99.99,,,-99.99,,2013-02-02 06:42:00,
2013-02-02 01:51:00,14.0,7.0,30.29,SW,216,2.0,-999.0,73,-99.99,,,-99.99,,2013-02-02 06:51:00,
2013-02-02 02:02:00,14.0,7.0,30.29,West,267,1.0,-999.0,72,-99.99,,,-99.99,,2013-02-02 07:02:00,
2013-02-02 02:12:00,13.0,6.0,30.29,WSW,254,1.0,-999.0,73,-99.99,,,-99.99,,2013-02-02 07:12:00,
2013-02-02 02:21:00,13.0,6.0,30.29,WSW,254,1.0,-999.0,73,-99.99,,,-99.99,,2013-02-02 07:21:00,
2013-02-02 02:32:00,13.0,6.0,30.28,SW,219,2.0,-999.0,72,-99.99,,,-99.99,,2013-02-02 07:32:00,
2013-02-02 02:42:00,13.0,6.0,30.28,SW,219,2.0,-999.0,72,-99.99,,,-99.99,,2013-02-02 07:42:00,
2013-02-02 02:51:00,13.0,6.0,30.29,SSW,205,2.0,-999.0,73,-99.99,,,-99.99,,2013-02-02 07:51:00,
2013-02-02 03:01:00,13.0,6.0,30.29,WSW,240,1.0,-999.0,74,-99.99,,,-99.99,,2013-02-02 08:01:00,
2013-02-02 03:11:00,13.0,6.0,30.29,WSW,240,1.0,-999.0,74,-99.99,,,-99.99,,2013-02-02 08:11:00,
2013-02-02 03:21:00,13.0,7.0,30.29,WSW,252,1.0,-999.0,75,-99.99,,,-99.99,,2013-02-02 08:21:00,
2013-02-02 03:32:00,13.0,6.0,30.27,West,264,0.0,-999.0,73,-99.99,,,-99.99,,2013-02-02 08:32:00,
2013-02-02 03:41:00,13.0,6.0,30.27,West,264,0.0,-999.0,73,-99.99,,,-99.99,,2013-02-02 08:41:00,
2013-02-02 03:52:00,13.0,6.0,30.27,WSW,254,1.0,-999.0,73,-99.99,,,-99.99,,2013-02-02 08:52:00,
2013-02-02 04:01:00,13.0,6.0,30.26,WNW,284,1.0,-999.0,73,-99.99,,,-99.99,,2013-02-02 09:01:00,
2013-02-02 04:11:00,13.0,6.0,30.26,WNW,284,1.0,-999.0,73,-99.99,,,-99.99,,2013-02-02 09:11:00,
2013-02-02 04:22:00,13.0,6.0,30.25,SW,232,1.0,-999.0,73,-99.99,,,-99.99,,2013-02-02 09:22:00,
2013-02-02 04:32:00,13.0,6.0,30.25,WSW,238,1.0,-999.0,74,-99.99,,,-99.99,,2013-02-02 09:32:00,
2013-02-02 04:42:00,13.0,6.0,30.25,WSW,238,1.0,-999.0,74,-99.99,,,-99.99,,2013-02-02 09:42:00,
2013-02-02 04:52:00,13.0,6.0,30.24,WSW,258,2.0,-999.0,74,-99.99,,,-99.99,,2013-02-02 09:52:00,
2013-02-02 05:02:00,13.0,6.0,30.23,SSW,205,0.0,-999.0,74,-99.99,,,-99.99,,2013-02-02 10:02:00,
2013-02-02 05:11:00,13.0,6.0,30.23,SSW,205,0.0,-999.0,74,-99.99,,,-99.99,,2013-02-02 10:11:00,
2013-02-02 05:21:00,13.0,7.0,30.23,SSW,193,1.0,-999.0,75,-99.99,,,-99.99,,2013-02-02 10:21:00,
2013-02-02 05:32:00,13.0,7.0,30.23,SSW,197,1.0,-999.0,75,-99.99,,,-99.99,,2013-02-02 10:32:00,
2013-02-02 05:42:00,13.0,7.0,30.23,SSW,197,1.0,-999.0,75,-99.99,,,-99.99,,2013-02-02 10:42:00,
2013-02-02 05:52:00,13.0,7.0,30.22,SSW,205,1.0,-999.0,76,-99.99,,,-99.99,,2013-02-02 10:52:00,
2013-02-02 06:02:00,13.0,7.0,30.21,South,180,2.0,-999.0,76,-99.99,,,-99.99,,2013-02-02 11:02:00,
2013-02-02 06:11:00,13.0,7.0,30.21,South,180,2.0,-999.0,76,-99.99,,,-99.99,,2013-02-02 11:11:00,
2013-02-02 06:22:00,13.0,7.0,30.22,SSW,210,1.0,-999.0,76,-99.99,,,-99.99,,2013-02-02 11:22:00,
2013-02-02 06:32:00,13.0,7.0,30.21,South,180,1.0,-999.0,77,-99.99,,,-99.99,,2013-02-02 11:32:00,
2013-02-02 06:42:00,13.0,7.0,30.21,South,180,1.0,-999.0,77,-99.99,,,-99.99,,2013-02-02 11:42:00,
2013-02-02 06:52:00,13.0,7.0,30.20,SW,223,2.0,-999.0,77,-99.99,,,-99.99,,2013-02-02 11:52:00,
2013-02-02 07:02:00,13.0,7.0,30.20,SW,227,1.0,-999.0,78,-99.99,,,-99.99,,2013-02-02 12:02:00,
2013-02-02 07:11:00,13.0,7.0,30.20,SW,227,1.0,-999.0,78,-99.99,,,-99.99,,2013-02-02 12:11:00,
2013-02-02 07:22:00,13.0,8.0,30.19,SW,214,1.0,-999.0,79,-99.99,,,-99.99,,2013-02-02 12:22:00,
2013-02-02 07:32:00,13.0,8.0,30.19,SSE,150,1.0,-999.0,80,-99.99,,,-99.99,,2013-02-02 12:32:00,
2013-02-02 07:42:00,13.0,8.0,30.19,SSE,150,1.0,-999.0,80,-99.99,,,-99.99,,2013-02-02 12:42:00,
2013-02-02 07:52:00,13.0,8.0,30.19,South,184,1.0,-999.0,81,-99.99,,,-99.99,,2013-02-02 12:52:00,
2013-02-02 08:03:00,13.0,9.0,30.18,SSE,156,0.0,-999.0,84,-99.99,,,-99.99,,2013-02-02 13:03:00,
2013-02-02 08:11:00,13.0,9.0,30.18,SSE,156,0.0,-999.0,84,-99.99,,,-99.99,,2013-02-02 13:11:00,
2013-02-02 08:22:00,13.0,10.0,30.18,SE,140,0.0,-999.0,86,-99.99,,,-99.99,,2013-02-02 13:22:00,
2013-02-02 08:33:00,13.0,10.0,30.17,SSE,153,1.0,-999.0,86,-99.99,,,-99.99,,2013-02-02 13:33:00,
2013-02-02 08:42:00,13.0,10.0,30.17,SSE,153,1.0,-999.0,86,-99.99,,,-99.99,,2013-02-02 13:42:00,
2013-02-02 08:52:00,13.0,10.0,30.16,South,185,1.0,-999.0,86,-99.99,,,-99.99,,2013-02-02 13:52:00,
2013-02-02 09:03:00,14.0,10.0,30.16,South,189,1.0,-999.0,85,-99.99,,,-99.99,,2013-02-02 14:03:00,
2013-02-02 09:11:00,14.0,10.0,30.16,South,189,1.0,-999.0,85,-99.99,,,-99.99,,2013-02-02 14:11:00,
2013-02-02 09:22:00,14.0,10.0,30.16,SSE,155,1.0,-999.0,85,-99.99,,,-99.99,,2013-02-02 14:22:00,
2013-02-02 09:33:00,14.0,11.0,30.16,SW,219,2.0,-999.0,86,-99.99,,,-99.99,,2013-02-02 14:33:00,
2013-02-02 09:42:00,14.0,11.0,30.16,SW,219,2.0,-999.0,86,-99.99,,,-99.99,,2013-02-02 14:42:00,
2013-02-02 09:52:00,14.0,11.0,30.15,South,184,1.0,-999.0,87,-99.99,,,-99.99,,2013-02-02 14:52:00,
2013-02-02 10:03:00,14.0,11.0,30.14,SSW,209,1.0,-999.0,88,-99.99,,,-99.99,,2013-02-02 15:03:00,
2013-02-02 10:12:00,14.0,11.0,30.14,SSW,209,1.0,-999.0,88,-99.99,,,-99.99,,2013-02-02 15:12:00,
2013-02-02 10:22:00,14.0,11.0,30.14,SE,139,0.0,-999.0,89,-99.99,,,-99.99,,2013-02-02 15:22:00,
2013-02-02 10:33:00,14.0,11.0,30.13,SSW,202,1.0,-999.0,89,-99.99,,,-99.99,,2013-02-02 15:33:00,
2013-02-02 10:42:00,14.0,11.0,30.13,SSW,202,1.0,-999.0,89,-99.99,,,-99.99,,2013-02-02 15:42:00,
2013-02-02 10:52:00,15.0,12.0,30.13,SSE,152,1.0,-999.0,88,-99.99,,,-99.99,,2013-02-02 15:52:00,
2013-02-02 11:03:00,15.0,12.0,30.11,North,5,0.0,-999.0,89,-99.99,,,-99.99,,2013-02-02 16:03:00,
2013-02-02 11:12:00,15.0,12.0,30.11,North,5,0.0,-999.0,89,-99.99,,,-99.99,,2013-02-02 16:12:00,
2013-02-02 11:23:00,16.0,13.0,30.11,South,186,0.0,-999.0,89,-99.99,,,-99.99,,2013-02-02 16:23:00,
2013-02-02 11:32:00,16.0,13.0,30.10,WSW,244,0.0,-999.0,89,-99.99,,,-99.99,,2013-02-02 16:32:00,
2013-02-02 11:42:00,16.0,13.0,30.10,WSW,244,0.0,-999.0,89,-99.99,,,-99.99,,2013-02-02 16:42:00,
2013-02-02 11:52:00,16.0,13.0,30.10,SSE,157,0.0,-999.0,89,-99.99,,,-99.99,,2013-02-02 16:52:00,
2013-02-02 12:03:00,16.0,13.0,30.10,SSE,157,0.0,-999.0,89,-99.99,,,-99.99,,2013-02-02 17:03:00,
2013-02-02 12:11:00,16.0,13.0,30.10,SSE,157,0.0,-999.0,89,-99.99,,,-99.99,,2013-02-02 17:11:00,
2013-02-02 12:22:00,17.0,15.0,30.08,SSW,202,1.0,-999.0,90,-99.99,,,-99.99,,2013-02-02 17:22:00,
2013-02-02 12:33:00,17.0,15.0,30.07,South,178,1.0,-999.0,90,-99.99,,,-99.99,,2013-02-02 17:33:00,
2013-02-02 12:42:00,17.0,15.0,30.07,South,178,1.0,-999.0,90,-99.99,,,-99.99,,2013-02-02 17:42:00,
2013-02-02 12:52:00,18.0,16.0,30.06,South,182,1.0,-999.0,90,-99.99,,,-99.99,,2013-02-02 17:52:00,
2013-02-02 13:03:00,18.0,16.0,30.04,WSW,254,1.0,-999.0,90,-99.99,,,-99.99,,2013-02-02 18:03:00,
2013-02-02 13:12:00,18.0,16.0,30.04,WSW,254,1.0,-999.0,90,-99.99,,,-99.99,,2013-02-02 18:12:00,
2013-02-02 13:22:00,19.0,17.0,30.03,SW,221,0.0,-999.0,91,-99.99,,,-99.99,,2013-02-02 18:22:00,
2013-02-02 13:32:00,19.0,17.0,30.03,SSW,192,2.0,-999.0,90,-99.99,,,-99.99,,2013-02-02 18:32:00,
2013-02-02 13:42:00,19.0,17.0,30.03,SSW,192,2.0,-999.0,90,-99.99,,,-99.99,,2013-02-02 18:42:00,
2013-02-02 13:52:00,20.0,18.0,30.02,SSW,203,1.0,-999.0,90,-99.99,,,-99.99,,2013-02-02 18:52:00,
2013-02-02 14:02:00,20.0,18.0,30.01,WSW,253,0.0,-999.0,91,-99.99,,,-99.99,,2013-02-02 19:02:00,
2013-02-02 14:12:00,20.0,18.0,30.01,WSW,253,0.0,-999.0,91,-99.99,,,-99.99,,2013-02-02 19:12:00,
2013-02-02 14:22:00,21.0,19.0,30.01,SSW,199,1.0,-999.0,90,-99.99,,,-99.99,,2013-02-02 19:22:00,
2013-02-02 14:32:00,21.0,19.0,30.01,SSE,166,1.0,-999.0,90,-99.99,,,-99.99,,2013-02-02 19:32:00,
2013-02-02 14:42:00,21.0,19.0,30.01,SSE,166,1.0,-999.0,90,-99.99,,,-99.99,,2013-02-02 19:42:00,
2013-02-02 14:51:00,21.0,19.0,30.01,SSE,153,1.0,-999.0,91,-99.99,,,-99.99,,2013-02-02 19:51:00,
2013-02-02 15:02:00,21.0,19.0,30.00,South,172,0.0,-999.0,91,-99.99,,,-99.99,,2013-02-02 20:02:00,
2013-02-02 15:11:00,21.0,19.0,30.00,South,172,0.0,-999.0,91,-99.99,,,-99.99,,2013-02-02 20:11:00,
2013-02-02 15:22:00,21.0,19.0,30.00,South,188,0.0,-999.0,91,-99.99,,,-99.99,,2013-02-02 20:22:00,
2013-02-02 15:32:00,22.0,20.0,30.00,SSW,205,0.0,-999.0,91,-99.99,,,-99.99,,2013-02-02 20:32:00,
2013-02-02 15:42:00,22.0,20.0,30.00,SSW,205,0.0,-999.0,91,-99.99,,,-99.99,,2013-02-02 20:42:00,
2013-02-02 15:52:00,22.0,20.0,29.99,SW,221,0.0,-999.0,91,-99.99,,,-99.99,,2013-02-02 20:52:00,
2013-02-02 16:02:00,22.0,20.0,29.99,South,180,0.0,-999.0,91,-99.99,,,-99.99,,2013-02-02 21:02:00,
2013-02-02 16:11:00,22.0,20.0,29.99,South,180,0.0,-999.0,91,-99.99,,,-99.99,,2013-02-02 21:11:00,
2013-02-02 16:21:00,22.0,20.0,29.99,South,180,0.0,-999.0,91,-99.99,,,-99.99,,2013-02-02 21:21:00,
2013-02-02 16:32:00,23.0,21.0,29.99,South,180,0.0,-999.0,92,-99.99,,,-99.99,,2013-02-02 21:32:00,
2013-02-02 16:42:00,23.0,21.0,29.99,South,180,0.0,-999.0,92,-99.99,,,-99.99,,2013-02-02 21:42:00,
2013-02-02 16:52:00,23.0,21.0,29.99,South,180,0.0,-999.0,92,-99.99,,,-99.99,,2013-02-02 21:52:00,
2013-02-02 17:03:00,23.0,21.0,29.99,SSW,211,0.0,-999.0,92,-99.99,,,-99.99,,2013-02-02 22:03:00,
2013-02-02 17:12:00,23.0,21.0,29.99,SSW,211,0.0,-999.0,92,-99.99,,,-99.99,,2013-02-02 22:12:00,
2013-02-02 17:21:00,23.0,21.0,29.99,SSW,211,0.0,-999.0,91,-99.99,,,-99.99,,2013-02-02 22:21:00,
2013-02-02 17:32:00,23.0,21.0,29.99,SSW,211,0.0,-999.0,91,-99.99,,,-99.99,,2013-02-02 22:32:00,
2013-02-02 17:42:00,23.0,21.0,29.99,SSW,211,0.0,-999.0,91,-99.99,,,-99.99,,2013-02-02 22:42:00,
2013-02-02 17:52:00,22.0,20.0,30.00,SSW,211,0.0,-999.0,91,-99.99,,,-99.99,,2013-02-02 22:52:00,
2013-02-02 18:02:00,22.0,20.0,30.00,SW,215,0.0,-999.0,91,-99.99,,,-99.99,,2013-02-02 23:02:00,
2013-02-02 18:11:00,22.0,20.0,30.00,SW,215,0.0,-999.0,91,-99.99,,,-99.99,,2013-02-02 23:11:00,
2013-02-02 18:22:00,22.0,20.0,29.99,SW,214,0.0,-999.0,91,-99.99,,,-99.99,,2013-02-02 23:22:00,
2013-02-02 18:32:00,22.0,20.0,29.99,SW,214,0.0,-999.0,91,-99.99,,,-99.99,,2013-02-02 23:32:00,
2013-02-02 18:42:00,22.0,20.0,29.99,SW,214,0.0,-999.0,91,-99.99,,,-99.99,,2013-02-02 23:42:00,
2013-02-02 18:52:00,22.0,20.0,30.00,SW,214,0.0,-999.0,91,-99.99,,,-99.99,,2013-02-02 23:52:00,
2013-02-02 19:02:00,22.0,20.0,30.00,SW,214,0.0,-999.0,92,-99.99,,,-99.99,,2013-02-03 00:02:00,
2013-02-02 19:11:00,22.0,20.0,30.00,SW,214,0.0,-999.0,92,-99.99,,,-99.99,,2013-02-03 00:11:00,
2013-02-02 19:22:00,22.0,20.0,30.00,SW,214,0.0,-999.0,92,-99.99,,,-99.99,,2013-02-03 00:22:00,
2013-02-02 19:32:00,22.0,20.0,30.00,SW,214,0.0,-999.0,92,-99.99,,,-99.99,,2013-02-03 00:32:00,
2013-02-02 19:42:00,22.0,20.0,30.00,SW,214,0.0,-999.0,92,-99.99,,,-99.99,,2013-02-03 00:42:00,
2013-02-02 19:52:00,22.0,20.0,30.00,SW,214,0.0,-999.0,92,-99.99,,,-99.99,,2013-02-03 00:52:00,
2013-02-02 20:02:00,24.0,23.0,30.01,SW,214,0.0,-999.0,94,-99.99,,,-99.99,,2013-02-03 01:02:00,
2013-02-02 20:11:00,23.0,21.0,30.01,SW,214,0.0,-999.0,92,-99.99,,,-99.99,,2013-02-03 01:11:00,
2013-02-02 20:21:00,23.0,21.0,30.01,SW,214,0.0,-999.0,92,-99.99,,,-99.99,,2013-02-03 01:21:00,
2013-02-02 20:32:00,24.0,23.0,30.01,SW,214,0.0,-999.0,95,-99.99,,,-99.99,,2013-02-03 01:32:00,
2013-02-02 20:42:00,24.0,23.0,30.01,SW,214,0.0,-999.0,95,-99.99,,,-99.99,,2013-02-03 01:42:00,
2013-02-02 20:52:00,25.0,24.0,30.01,SW,214,0.0,-999.0,94,-99.99,,,-99.99,,2013-02-03 01:52:00,
2013-02-02 21:01:00,23.0,21.0,30.01,WSW,254,0.0,-999.0,92,-99.99,,,-99.99,,2013-02-03 02:01:00,
2013-02-02 21:11:00,23.0,21.0,30.01,WSW,254,0.0,-999.0,92,-99.99,,,-99.99,,2013-02-03 02:11:00,
2013-02-02 21:21:00,23.0,21.0,30.00,WSW,254,0.0,-999.0,93,-99.99,,,-99.99,,2013-02-03 02:21:00,
2013-02-02 21:32:00,24.0,22.0,30.00,West,268,0.0,-999.0,93,-99.99,,,-99.99,,2013-02-03 02:32:00,
2013-02-02 21:42:00,24.0,22.0,30.00,West,268,0.0,-999.0,93,-99.99,,,-99.99,,2013-02-03 02:42:00,
2013-02-02 21:52:00,23.0,21.0,30.00,West,268,0.0,-999.0,92,-99.99,,,-99.99,,2013-02-03 02:52:00,
2013-02-02 22:02:00,23.0,21.0,30.00,West,268,0.0,-999.0,93,-99.99,,,-99.99,,2013-02-03 03:02:00,
2013-02-02 22:11:00,23.0,21.0,30.00,West,268,0.0,-999.0,92,-99.99,,,-99.99,,2013-02-03 03:11:00,
2013-02-02 22:22:00,23.0,21.0,30.00,West,268,0.0,-999.0,92,-99.99,,,-99.99,,2013-02-03 03:22:00,
2013-02-02 22:32:00,22.0,20.0,30.00,West,268,0.0,-999.0,92,-99.99,,,-99.99,,2013-02-03 03:32:00,
2013-02-02 22:42:00,22.0,20.0,30.00,West,268,0.0,-999.0,92,-99.99,,,-99.99,,2013-02-03 03:42:00,
2013-02-02 22:51:00,22.0,20.0,30.00,West,268,0.0,-999.0,91,-99.99,,,-99.99,,2013-02-03 03:51:00,
2013-02-02 23:01:00,22.0,20.0,29.99,West,268,0.0,-999.0,92,-99.99,,,-99.99,,2013-02-03 04:01:00,
2013-02-02 23:11:00,22.0,20.0,29.99,West,268,0.0,-999.0,92,-99.99,,,-99.99,,2013-02-03 04:11:00,
2013-02-02 23:21:00,22.0,20.0,29.99,West,268,0.0,-999.0,92,-99.99,,,-99.99,,2013-02-03 04:21:00,
2013-02-02 23:32:00,22.0,20.0,29.99,West,268,0.0,-999.0,92,-99.99,,,-99.99,,2013-02-03 04:32:00,
2013-02-02 23:42:00,22.0,20.0,29.99,West,268,0.0,-999.0,92,-99.99,,,-99.99,,2013-02-03 04:42:00,
2013-02-02 23:52:00,22.0,20.0,29.99,West,268,0.0,-999.0,92,-99.99,,,-99.99,,2013-02-03 04:52:00,